Casement, Ireland

10:24 PM GMT on March 25, 2017 (GMT +0000)
Casement Air Base

Weather History for EIME - September, 2014

Change the Weather History Date:

Tuesday, September 2, 2014

  Actual Average (EIDW) Record (EIDW)
Temperature  
Mean Temperature 56 °F -  
Max Temperature 62 °F 61 °F 71 °F (1996)
Min Temperature 51 °F 47 °F 42 °F (2010)
Degree Days  
Heating Degree Days 8    
Growing Degree Days 6 (Base 50)    
Moisture  
Dew Point 50 °F    
Average Humidity 74    
Maximum Humidity 94    
Minimum Humidity 54    
Precipitation  
Precipitation 0.00 in - - ()
Sea Level Pressure  
Sea Level Pressure 30.24 in    
Wind  
Wind Speed 4 mph ()    
Max Wind Speed 9 mph    
Max Gust Speed -    
Visibility 7.1 miles    
Events      
Averages and records for this station are not official NWS values.
T = Trace of Precipitation, MM = Missing Value Source: Averaged Metar Reports

Daily Weather History Graph

Daily Weather History Graph

Search for Another Location

Airport or City:

Trip Planner

Search our weather history database for the weather conditions in past years. The results will help you decide how hot, cold, wet, or windy it might be!

Date:

Astronomy

Sep. 02, 2014 Rise Set
Actual Time 6:36 AM IST 8:13 PM IST
Civil Twilight 6:00 AM IST 8:49 PM IST
Nautical Twilight 5:15 AM IST 9:34 PM IST
Astronomical Twilight 4:24 AM IST 10:23 PM IST
Moon 3:07 PM IST (9/2) 11:54 PM IST (9/2)
Length of Visible Light 14h 49m
Length of Day
13h 36m
Waxing Crescent, 50% of the Moon is Illuminated
Sep 2
Waxing Crescent
Sep 2
First Quarter
Sep 9
Full
Sep 16
Last Quarter
Sep 24
New

Hourly Weather History & Observations

Time (IST) Temp. Dew Point Humidity Pressure Visibility Wind Dir Wind Speed Gust Speed Precip Events Conditions
12:00 AM 56 °F 51 °F 76% 30.25 in 22 mi SW 2.2 mph - -   Mostly Cloudy
12:00 AM 57.2 °F 50.0 °F 77% 30.24 in 6.2 mi SW 2.3 mph - N/A   Mostly Cloudy
1:00 AM 56 °F 50 °F 75% 30.25 in 22 mi South 4.5 mph - -   Mostly Cloudy
1:00 AM 57.2 °F 50.0 °F 77% 30.24 in 6.2 mi South 3.5 mph - N/A   Mostly Cloudy
2:00 AM 56 °F 51 °F 76% 30.26 in 22 mi SSW 2.2 mph - -   Mostly Cloudy
2:00 AM 55.4 °F 50.0 °F 82% 30.24 in 6.2 mi SSW 2.3 mph - N/A   Mostly Cloudy
3:00 AM 54 °F 51 °F 86% 30.25 in 22 mi SW 4.5 mph - -   Mostly Cloudy
4:00 AM 55 °F 50 °F 78% 30.25 in 22 mi SSW 4.5 mph - -   Overcast
4:00 AM 55.4 °F 50.0 °F 82% 30.24 in 6.2 mi SSW 3.5 mph - N/A   Overcast
5:00 AM 55 °F 50 °F 78% 30.25 in 22 mi NNW 4.5 mph - -   Overcast
5:00 AM 55.4 °F 50.0 °F 82% 30.24 in 6.2 mi NNW 3.5 mph - N/A   Overcast
6:00 AM 55 °F 50 °F 76% 30.25 in 22 mi WSW 2.2 mph - -   Mostly Cloudy
7:00 AM 52 °F 48 °F 82% 30.25 in 28 mi South 6.7 mph - -   Mostly Cloudy
7:00 AM 51.8 °F 48.2 °F 88% 30.24 in 6.2 mi South 5.8 mph - N/A   Mostly Cloudy
8:00 AM 54 °F 51 °F 85% 30.25 in 28 mi South 2.2 mph - -   Mostly Cloudy
8:00 AM 53.6 °F 50.0 °F 88% 30.24 in 6.2 mi South 1.2 mph - N/A   Mostly Cloudy
8:30 AM 55.4 °F 51.8 °F 88% 30.24 in 6.2 mi SSE 3.5 mph - N/A   Mostly Cloudy
9:00 AM 57 °F 51 °F 76% 30.25 in 28 mi East 2.2 mph - -   Mostly Cloudy
9:00 AM 57.2 °F 51.8 °F 82% 30.24 in 6.2 mi East 1.2 mph - N/A   Mostly Cloudy
9:30 AM 59.0 °F 50.0 °F 72% 30.24 in 6.2 mi East 2.3 mph - N/A   Mostly Cloudy
10:00 AM 59 °F 50 °F 63% 30.26 in 28 mi NNE 2.2 mph - -   Mostly Cloudy
10:00 AM 59.0 °F 50.0 °F 72% 30.24 in 6.2 mi NE 2.3 mph - N/A   Mostly Cloudy
10:30 AM 60.8 °F 50.0 °F 68% 30.24 in 6.2 mi NE 3.5 mph - N/A   Mostly Cloudy
11:00 AM 60 °F 48 °F 54% 30.26 in 28 mi NE 2.2 mph - -   Mostly Cloudy
11:00 AM 60.8 °F 48.2 °F 63% 30.24 in 6.2 mi NE 2.3 mph - N/A   Mostly Cloudy
11:30 AM 60.8 °F 48.2 °F 63% 30.24 in 6.2 mi ESE 5.8 mph - N/A   Mostly Cloudy
12:00 PM 60 °F 49 °F 59% 30.26 in 28 mi East 4.5 mph - -   Mostly Cloudy
12:30 PM 60.8 °F 50.0 °F 68% 30.24 in 6.2 mi ESE 6.9 mph - N/A   Mostly Cloudy
1:00 PM 60 °F 49 °F 58% 30.25 in 25 mi East 6.7 mph - -   Mostly Cloudy
1:00 PM 60.8 °F 48.2 °F 63% 30.24 in 6.2 mi East 4.6 mph - N/A   Mostly Cloudy
1:30 PM 60.8 °F 50.0 °F 68% 30.24 in 6.2 mi East 5.8 mph - N/A   Mostly Cloudy
2:00 PM 61 °F 49 °F 56% 30.25 in 25 mi ESE 6.7 mph - -   Mostly Cloudy
2:00 PM 60.8 °F 50.0 °F 68% 30.24 in 6.2 mi East 6.9 mph - N/A   Mostly Cloudy
2:30 PM 60.8 °F 50.0 °F 68% 30.24 in 6.2 mi ESE 5.8 mph - N/A   Mostly Cloudy
3:00 PM 62 °F 51 °F 58% 30.24 in 25 mi SE 6.7 mph - -   Mostly Cloudy
3:00 PM 62.6 °F 51.8 °F 68% 30.24 in 6.2 mi SE 3.5 mph - N/A   Mostly Cloudy
3:30 PM 60.8 °F 50.0 °F 68% 30.21 in 6.2 mi ESE 8.1 mph - N/A   Mostly Cloudy
4:00 PM 61 °F 50 °F 57% 30.23 in 25 mi East 8.9 mph - -   Mostly Cloudy
4:00 PM 60.8 °F 50.0 °F 68% 30.21 in 6.2 mi ESE 9.2 mph - N/A   Mostly Cloudy
4:30 PM 60.8 °F 50.0 °F 68% 30.21 in 6.2 mi East 8.1 mph - N/A   Mostly Cloudy
5:00 PM 61 °F 50 °F 57% 30.22 in 25 mi East 8.9 mph - -   Mostly Cloudy
5:00 PM 60.8 °F 50.0 °F 68% 30.21 in 6.2 mi East 9.2 mph - N/A   Mostly Cloudy
6:00 PM 60 °F 51 °F 63% 30.21 in 25 mi East 8.9 mph - -   Mostly Cloudy
7:00 PM 58 °F 51 °F 71% 30.21 in 25 mi ESE 8.9 mph - -   Partly Cloudy
7:00 PM 59.0 °F 51.8 °F 77% 30.18 in 6.2 mi East 8.1 mph - N/A   Scattered Clouds
8:00 PM 56 °F 51 °F 78% 30.21 in 25 mi East 6.7 mph - -   Partly Cloudy
9:00 PM 53 °F 50 °F 87% 30.23 in 19 mi East 6.7 mph - -   Scattered Clouds
9:00 PM 53.6 °F 50.0 °F 88% 30.21 in 6.2 mi ESE 6.9 mph - N/A   Partly Cloudy
10:00 PM 52 °F 49 °F 88% 30.23 in 12 mi East 6.7 mph - -   Scattered Clouds
10:00 PM 51.8 °F 50.0 °F 94% 30.21 in 6.2 mi East 6.9 mph - N/A   Partly Cloudy
11:00 PM 51 °F 49 °F 90% 30.23 in 16 mi ESE 6.7 mph - -   Scattered Clouds
11:00 PM 51.8 °F 48.2 °F 88% 30.21 in 6.2 mi East 5.8 mph - N/A   Partly Cloudy